Weather History for Naples, FL

Change the Weather History Date:

Wednesday, March 6, 2013

  Actual Average Record
Temperature  
Mean Temperature 65 °F 69 °F  
Max Temperature 72 °F 79 °F 89 °F (1961)
Min Temperature 57 °F 59 °F 41 °F (1978)
Degree Days  
Heating Degree Days 0 1  
Month to date heating degree days 40 6  
Since 1 July heating degree days 134 239  
Cooling Degree Days 0 5  
Month to date cooling degree days 0 30  
Year to date cooling degree days 328 221  
Growing Degree Days 15 (Base 50)    
Moisture  
Dew Point 53 °F    
Average Humidity 68    
Maximum Humidity 87    
Minimum Humidity 48    
Precipitation  
Precipitation T in 0.08 in 1.10 in (1957)
Month to date precipitation 0.05 0.40  
Year to date precipitation 1.87 4.35  
Snow  
Snow 0.00 in - - ()
Month to date snowfall 0.0  
Since 1 July snowfall 0.0  
Snow Depth 0.00 in    
Sea Level Pressure  
Sea Level Pressure 30.09 in    
Wind  
Wind Speed 13 mph (WNW)    
Max Wind Speed 23 mph    
Max Gust Speed 33 mph    
Visibility 10 miles    
Events      
T = Trace of Precipitation, MM = Missing Value Source: NWS Daily Summary

Daily Weather History Graph

Daily Weather History Graph

Search for Another Location

Airport:

Trip Planner

Search our weather history database for the weather conditions in past years. The results will help you decide how hot, cold, wet, or windy it might be!

Date:

Astronomy

Mar. 06, 2013 Rise Set
Actual Time 6:45 AM EST 6:31 PM EST
Civil Twilight 6:22 AM EST 6:54 PM EST
Nautical Twilight 5:55 AM EST 7:21 PM EST
Astronomical Twilight 5:28 AM EST 7:48 PM EST
Moon 2:29 AM EST (3/6) 1:34 PM EST (3/6)
Length of Visible Light 12h 32m
Length of Day
11h 46m
Waning Crescent, 30% of the Moon is Illuminated
Mar 6
Waning Crescent
Mar 11
New
Mar 19
First Quarter
Mar 27
Full
Apr 3
Last Quarter

Hourly Weather History & Observations

Time (EST) Temp. Dew Point Humidity Pressure Visibility Wind Dir Wind Speed Gust Speed Precip Events Conditions
12:53 AM 64.0 °F 57.9 °F 80% 30.09 in 10.0 mi SW 9.2 mph - N/A   Clear
1:53 AM 64.9 °F 57.9 °F 78% 30.06 in 10.0 mi SW 10.4 mph - N/A   Clear
2:53 AM 64.9 °F 57.9 °F 78% 30.04 in 10.0 mi WSW 8.1 mph - N/A   Clear
3:53 AM 64.9 °F 57.9 °F 78% 30.04 in 10.0 mi SW 6.9 mph - N/A   Mostly Cloudy
4:53 AM 66.0 °F 57.9 °F 75% 30.03 in 10.0 mi SW 12.7 mph - N/A   Scattered Clouds
5:53 AM 66.0 °F 57.9 °F 75% 30.04 in 10.0 mi SW 12.7 mph - N/A   Partly Cloudy
7:53 AM 69.1 °F 60.1 °F 73% 30.06 in 10.0 mi SW 13.8 mph - N/A   Clear
8:53 AM 71.1 °F 61.0 °F 70% 30.07 in 10.0 mi SW 16.1 mph - N/A   Clear
9:53 AM 69.1 °F 61.0 °F 75% 30.10 in 10.0 mi WNW 15.0 mph 25.3 mph N/A   Overcast
10:02 AM 66.2 °F 59.0 °F 78% 30.11 in 8.0 mi NNW 11.5 mph 21.9 mph N/A   Overcast
10:06 AM 66.2 °F 59.0 °F 78% 30.11 in 8.0 mi NW 13.8 mph 21.9 mph N/A   Overcast
10:53 AM 64.0 °F 60.1 °F 87% 30.12 in 7.0 mi NW 9.2 mph - 0.00 in   Overcast
11:01 AM 64.4 °F 60.8 °F 88% 30.12 in 8.0 mi NNW 10.4 mph - N/A   Overcast
11:20 AM 66.2 °F 57.2 °F 73% 30.12 in 9.0 mi NNW 9.2 mph 17.3 mph N/A   Overcast
11:53 AM 66.9 °F 57.0 °F 70% 30.12 in 9.0 mi NW 15.0 mph 19.6 mph N/A   Mostly Cloudy
12:53 PM 66.9 °F 51.1 °F 57% 30.09 in 10.0 mi West 11.5 mph - N/A   Clear
1:53 PM 66.9 °F 48.0 °F 51% 30.07 in 10.0 mi WNW 16.1 mph 21.9 mph N/A   Clear
2:53 PM 66.0 °F 48.9 °F 54% 30.06 in 10.0 mi NW 17.3 mph 26.5 mph N/A   Clear
3:53 PM 64.0 °F 46.9 °F 54% 30.06 in 10.0 mi NW 17.3 mph 26.5 mph N/A   Clear
4:53 PM 63.0 °F 44.1 °F 50% 30.07 in 10.0 mi NW 13.8 mph 31.1 mph N/A   Clear
5:53 PM 62.1 °F 43.0 °F 50% 30.08 in 10.0 mi NW 17.3 mph 24.2 mph N/A   Clear
6:53 PM 60.1 °F 43.0 °F 53% 30.10 in 10.0 mi NW 15.0 mph 26.5 mph N/A   Clear
7:53 PM 59.0 °F 43.0 °F 55% 30.11 in 10.0 mi NW 16.1 mph 24.2 mph N/A   Clear
8:53 PM 59.0 °F 45.0 °F 60% 30.11 in 10.0 mi NW 11.5 mph 20.7 mph N/A   Clear
9:53 PM 59.0 °F 44.1 °F 58% 30.13 in 10.0 mi NW 13.8 mph 18.4 mph N/A   Clear
10:53 PM 59.0 °F 43.0 °F 55% 30.13 in 10.0 mi NW 9.2 mph 20.7 mph N/A   Clear
11:53 PM 57.0 °F 43.0 °F 59% 30.14 in 10.0 mi North 9.2 mph - N/A   Clear